Weather History for Moffett NAS, CA

Change the Weather History Date:

Thursday, August 22, 2013

  Actual Average Record
Temperature  
Mean Temperature 65 °F 68 °F  
Max Temperature 72 °F 78 °F 92 °F (1999)
Min Temperature 58 °F 59 °F 47 °F (1947)
Degree Days  
Heating Degree Days 0    
Month to date heating degree days 3  
Since 1 June heating degree days 17  
Since 1 July heating degree days 4  
Cooling Degree Days 0    
Month to date cooling degree days 53  
Year to date cooling degree days 318  
Since 1 June cooling degree days 244  
Growing Degree Days 16 (Base 50)    
Moisture  
Dew Point 55 °F    
Average Humidity 68    
Maximum Humidity 78    
Minimum Humidity 57    
Precipitation  
Precipitation 0.00 in 0.00 in 0.00 in (2014)
Month to date precipitation 0.00 0.01  
Year to date precipitation 1.82 9.66  
Since 1 July precipitation T 0.03  
Sea Level Pressure  
Sea Level Pressure 29.95 in    
Wind  
Wind Speed 7 mph (North)    
Max Wind Speed 21 mph    
Max Gust Speed 24 mph    
Visibility 10 miles    
Events      
T = Trace of Precipitation, MM = Missing Value Source: NWS Daily Summary

Daily Weather History Graph

Daily Weather History Graph

Search for Another Location

Airport:

Trip Planner

Search our weather history database for the weather conditions in past years. The results will help you decide how hot, cold, wet, or windy it might be!

Date:

Astronomy

Aug. 22, 2013 Rise Set
Actual Time 6:30 AM PDT 7:50 PM PDT
Civil Twilight 6:03 AM PDT 8:17 PM PDT
Nautical Twilight 5:30 AM PDT 8:50 PM PDT
Astronomical Twilight 4:56 AM PDT 9:24 PM PDT
Moon 8:42 PM PDT (8/22) 8:21 AM PDT (8/22)
Length of Visible Light 14h 14m
Length of Day
13h 20m
Waning Gibbous, 96% of the Moon is Illuminated
Aug 22
Waning Gibbous
Aug 28
Last Quarter
Sep 5
New
Sep 12
First Quarter
Sep 19
Full

Hourly Weather History & Observations

Time (PDT) Temp. Dew Point Humidity Pressure Visibility Wind Dir Wind Speed Gust Speed Precip Events Conditions
12:56 AM 63.0 °F 55.0 °F 75% 29.95 in 10.0 mi Calm Calm - N/A   Overcast
1:40 AM 62.6 °F 55.4 °F 77% 29.93 in 10.0 mi Calm Calm - N/A   Overcast
1:56 AM 63.0 °F 55.9 °F 78% 29.94 in 10.0 mi NNE 3.5 mph - N/A   Overcast
2:56 AM 63.0 °F 55.9 °F 78% 29.94 in 10.0 mi Calm Calm - N/A   Overcast
3:56 AM 63.0 °F 55.9 °F 78% 29.94 in 10.0 mi NE 3.5 mph - N/A   Overcast
4:56 AM 62.1 °F 55.0 °F 78% 29.94 in 10.0 mi North 4.6 mph - N/A   Overcast
5:56 AM 63.0 °F 55.9 °F 78% 29.95 in 10.0 mi Calm Calm - N/A   Overcast
6:56 AM 63.0 °F 55.0 °F 75% 29.96 in 10.0 mi Calm Calm - N/A   Overcast
7:38 AM 62.6 °F 55.4 °F 77% 29.96 in 10.0 mi Calm Calm - N/A   Overcast
7:56 AM 63.0 °F 55.9 °F 78% 29.97 in 10.0 mi North 3.5 mph - N/A   Overcast
8:56 AM 63.0 °F 54.0 °F 72% 29.99 in 10.0 mi Calm Calm - N/A   Overcast
9:56 AM 64.0 °F 55.0 °F 73% 29.99 in 10.0 mi Calm Calm - N/A   Overcast
10:56 AM 66.0 °F 54.0 °F 65% 30.00 in 10.0 mi North 8.1 mph - N/A   Overcast
11:56 AM 69.1 °F 55.0 °F 61% 29.99 in 10.0 mi NNE 4.6 mph - N/A   Overcast
12:17 PM 69.8 °F 55.4 °F 60% 29.97 in 10.0 mi Calm Calm - N/A   Scattered Clouds
12:56 PM 70.0 °F 55.0 °F 59% 29.97 in 10.0 mi North 8.1 mph - N/A   Partly Cloudy
1:56 PM 71.1 °F 55.9 °F 59% 29.96 in 10.0 mi NNW 11.5 mph - N/A   Clear
2:56 PM 72.0 °F 55.9 °F 57% 29.95 in 10.0 mi NNW 13.8 mph 19.6 mph N/A   Clear
3:56 PM 71.1 °F 55.0 °F 57% 29.94 in 10.0 mi NNW 17.3 mph - N/A   Clear
4:56 PM 71.1 °F 55.9 °F 59% 29.92 in 10.0 mi NNW 19.6 mph 23.0 mph N/A   Clear
5:56 PM 69.1 °F 55.9 °F 63% 29.91 in 10.0 mi NNW 16.1 mph - N/A   Clear
6:56 PM 66.9 °F 55.9 °F 68% 29.91 in 10.0 mi North 16.1 mph 23.0 mph N/A   Clear
7:56 PM 64.9 °F 55.9 °F 73% 29.93 in 10.0 mi North 13.8 mph - N/A   Clear
8:56 PM 63.0 °F 55.0 °F 75% 29.94 in 10.0 mi North 13.8 mph - N/A   Clear
9:56 PM 61.0 °F 54.0 °F 78% 29.95 in 10.0 mi NNW 5.8 mph - N/A   Clear
10:56 PM 60.1 °F 54.0 °F 80% 29.96 in 10.0 mi NNW 5.8 mph - N/A   Clear
11:56 PM 60.1 °F 54.0 °F 80% 29.96 in 10.0 mi Calm Calm - N/A   Clear